[[{"header":{"parameterUnit":"m.s-1","parameterCategory":1,"la1":30.2992,"la2":30.254,"lo1":-89.0895,"lo2":-89.0443,"dy":0.0025,"dx":0.0025,"nx":19,"ny":19,"refTime":"2026-05-24T21:00:00:Z","depth":0,"parameterNumber":2,"parameterNumberName":"U-component_of_WINDS"},"data":[0,0,0,-1.3992,-1.3994,-1.4061,-1.4061,-1.4146,-1.4147,0,0,0,0,0,0,0,0,0,0,0,-1.3969,-1.397,-1.3992,-1.3994,-1.4061,-1.4061,-1.4146,-1.4147,0,0,0,0,0,0,0,0,0,0,0,-1.3969,-1.397,-1.397,-1.3994,-1.4061,-1.4062,-1.4146,-1.4096,0,0,0,0,0,0,0,0,0,0,-1.4031,-1.4006,-1.397,-1.397,-1.3994,-1.4061,-1.4062,-1.4094,-1.4099,-1.4114,0,-1.4125,0,-1.4137,-1.4152,-1.4152,0,0,0,-1.3996,-1.4002,-1.4022,-1.397,-1.3995,-1.4061,-1.4032,-1.4097,-1.4103,-1.4121,-1.4127,-1.413,-1.4139,-1.4153,-1.4153,-1.4229,-1.4229,0,0,-1.3993,-1.398,-1.4018,-1.4026,-1.4014,-1.4029,-1.4034,-1.41,-1.4106,-1.4127,-1.4132,-1.414,-1.4153,-1.4154,-1.4229,-1.4229,0,0,0,-1.398,-1.3978,-1.3997,-1.4023,-1.4035,-1.4031,-1.4036,-1.4103,-1.411,-1.4133,-1.4141,-1.4154,-1.4155,-1.4228,-1.4229,-1.4228,0,0,0,-1.3978,-1.397,-1.3995,-1.3988,-1.4034,-1.4069,-1.4037,-1.4105,-1.4113,-1.4141,-1.4154,-1.4155,-1.4228,-1.4229,-1.4227,-1.423,0,0,0,-1.3966,-1.3969,-1.3978,-1.3987,-1.4016,-1.4069,-1.408,-1.4107,-1.4118,-1.4153,-1.4156,-1.4228,-1.4228,-1.4227,-1.4229,-1.4246,0,0,0,-1.395,-1.3976,-1.3977,-1.401,-1.4015,-1.4067,-1.4079,-1.4119,-1.4148,-1.4154,-1.4228,-1.4229,-1.4227,-1.4228,-1.4246,-1.4258,-1.4262,0,0,-1.3976,-1.3979,-1.3999,-1.4002,-1.405,-1.4058,-1.4107,-1.4146,-1.4161,-1.4206,-1.4208,-1.4227,-1.4229,-1.4246,-1.4289,-1.4292,0,0,0,-1.4003,-1.4018,-1.4033,-1.406,-1.4089,-1.4116,-1.4149,-1.4163,-1.4202,-1.4181,-1.4239,-1.424,-1.4251,-1.4257,-1.426,-1.4271,-1.4231,-1.4231,-1.4231,-1.4023,-1.404,-1.4075,-1.4101,-1.4127,-1.4161,-1.4184,-1.421,-1.4221,-1.4234,-1.4247,-1.4271,-1.4279,-1.4281,-1.4291,-1.4256,-1.4256,-1.4256,-1.4256,-1.4063,-1.4086,-1.4099,-1.4138,-1.4157,-1.4191,-1.4225,-1.4232,-1.4267,-1.4262,-1.4273,-1.4266,-1.4284,-1.4294,-1.4256,-1.4256,-1.4256,-1.4256,-1.4256,-1.4077,-1.4092,-1.4108,-1.4149,-1.418,-1.4206,-1.4239,-1.4256,-1.4272,-1.4282,-1.4298,-1.4298,-1.4301,-1.4288,-1.4289,-1.4289,-1.4289,-1.4289,-1.4289,-1.4086,-1.4105,-1.413,-1.4164,-1.4184,-1.4212,-1.4248,-1.4269,-1.4296,-1.4306,-1.4306,-1.4316,-1.4282,-1.4273,-1.429,-1.429,-1.429,-1.429,-1.429,-1.412,-1.4115,-1.4153,-1.4173,-1.4216,-1.4245,-1.4266,-1.4307,-1.4327,-1.4343,-1.4351,-1.4323,-1.4328,-1.4326,-1.4318,-1.4347,-1.4347,-1.4347,-1.4347,-1.4133,-1.4136,-1.418,-1.4211,-1.4243,-1.4266,-1.4311,-1.4339,-1.4368,-1.4382,-1.4381,-1.4373,-1.437,-1.4376,-1.4373,-1.4367,-1.4406,-1.4407,-1.4407,-1.4156,-1.4163,-1.4197,-1.4224,-1.4259,-1.4289,-1.4332,-1.4369,-1.4401,-1.4409,-1.4394,-1.4391,-1.4378,-1.4373,-1.4381,-1.4376,-1.4364,0,0]},{"header":{"parameterUnit":"m.s-1","parameterCategory":1,"la1":30.2992,"la2":30.254,"lo1":-89.0895,"lo2":-89.0443,"dy":0.0025,"dx":0.0025,"nx":19,"ny":19,"refTime":"2026-05-24T21:00:00:Z","depth":0,"parameterNumber":3,"parameterNumberName":"V-component_of_WINDS"},"data":[0,0,0,5.2908,5.2909,5.2949,5.2949,5.3011,5.3012,0,0,0,0,0,0,0,0,0,0,0,5.2903,5.2904,5.2908,5.2909,5.2949,5.2949,5.3011,5.3012,0,0,0,0,0,0,0,0,0,0,0,5.2903,5.2904,5.2905,5.2909,5.2949,5.2949,5.3011,5.2976,0,0,0,0,0,0,0,0,0,0,5.2935,5.2939,5.2904,5.2905,5.2909,5.2949,5.2949,5.2975,5.2979,5.2998,0,5.3018,0,5.3016,5.3017,5.3017,0,0,0,5.2903,5.2936,5.294,5.2905,5.291,5.2949,5.2929,5.2977,5.2981,5.3003,5.3018,5.302,5.3017,5.3017,5.3018,5.3148,5.3149,0,0,5.2901,5.2915,5.2937,5.2943,5.2939,5.2928,5.2931,5.2979,5.2997,5.3019,5.3022,5.3018,5.3018,5.3018,5.3147,5.3148,0,0,0,5.2898,5.2913,5.2916,5.2941,5.2947,5.2929,5.2932,5.2994,5.2994,5.3022,5.3019,5.3018,5.3019,5.3146,5.3147,5.3204,0,0,0,5.2897,5.2912,5.2915,5.2924,5.2947,5.2972,5.2947,5.2991,5.2996,5.3018,5.3018,5.302,5.3145,5.3147,5.32,5.3228,0,0,0,5.2898,5.2912,5.292,5.2925,5.2942,5.2971,5.2973,5.2992,5.2994,5.3017,5.302,5.3144,5.3146,5.3197,5.3223,5.3266,0,0,0,5.2903,5.2971,5.2921,5.2995,5.2942,5.3006,5.2973,5.3019,5.3046,5.3018,5.3145,5.3147,5.3196,5.322,5.3262,5.3304,5.3323,0,0,5.2996,5.2982,5.3024,5.2981,5.3057,5.2998,5.3082,5.3093,5.3083,5.3126,5.3129,5.3201,5.3223,5.3265,5.3425,5.344,0,0,0,5.3058,5.3088,5.3105,5.3131,5.3141,5.3152,5.3149,5.3152,5.3189,5.3108,5.3228,5.324,5.3265,5.3284,5.3297,5.3316,5.3157,5.3157,5.3156,5.321,5.3192,5.3259,5.3246,5.3271,5.3267,5.3285,5.3289,5.3265,5.3293,5.3306,5.3405,5.3428,5.3438,5.3458,5.3327,5.3327,5.3327,5.3327,5.3343,5.3383,5.3347,5.3399,5.338,5.3423,5.3421,5.3401,5.3438,5.3394,5.3415,5.3368,5.3455,5.3472,5.3331,5.3331,5.333,5.333,5.3329,5.344,5.3456,5.3459,5.3492,5.352,5.3504,5.3541,5.3522,5.3504,5.3524,5.3535,5.3534,5.353,5.3531,5.3531,5.3531,5.3532,5.3532,5.3532,5.3539,5.3541,5.3574,5.3589,5.3602,5.3616,5.361,5.3622,5.3631,5.3614,5.3614,5.3585,5.3467,5.3437,5.3537,5.3536,5.3536,5.3535,5.3535,5.3681,5.3645,5.3698,5.371,5.3725,5.3753,5.3727,5.3752,5.3759,5.3778,5.3745,5.366,5.3645,5.3635,5.361,5.3749,5.3749,5.3749,5.3749,5.3763,5.3753,5.38,5.3822,5.384,5.3822,5.3879,5.3875,5.3864,5.3867,5.3844,5.381,5.38,5.379,5.3777,5.3753,5.3926,5.3926,5.3926,5.3849,5.3839,5.3893,5.3881,5.389,5.3898,5.3951,5.3977,5.3957,5.3933,5.3869,5.3861,5.3805,5.3788,5.3763,5.3742,5.3699,0,0]}]]